When you browse on this site, cookies collect data to enhance your experience and personalize the content and advertising you see.
Visit our Privacy Policy to learn more. By continuing to use the site, you agree to this use of cookies and data.
  • In United Kingdom
  • List of Countries
  • For 7 days
  • Water Temperature
  • Satellite Maps
  • Weather Map
  • Weather Widgets
  • user-avatar
    Login

    Hourly Weather Oshla

    Today, 23 April, Tuesday

    Time Temperature Precipitation Wind Pressure Humidity
    00:00 +7°C° 0 mm 2 mps 757 mmHg 69%
    01:00 +7°C° 0 mm 2 mps 757 mmHg 70%
    02:00 +6°C° 0 mm 2 mps 757 mmHg 71%
    03:00 +5°C° 0 mm 2 mps 757 mmHg 72%
    04:00 +6°C° 0.1 mm 2 mps 757 mmHg 73%
    05:00 +6°C° 0.1 mm 2 mps 757 mmHg 74%
    06:00 +6°C° 0.1 mm 2 mps 757 mmHg 75%
    07:00 +7°C° 0 mm 2 mps 757 mmHg 74%
    08:00 +8°C° 0 mm 2 mps 757 mmHg 72%
    09:00 +9°C° 0 mm 3 mps 757 mmHg 69%
    10:00 +10°C° 0 mm 3 mps 757 mmHg 67%
    11:00 +10°C° 0 mm 3 mps 757 mmHg 64%
    12:00 +11°C° 0 mm 3 mps 757 mmHg 62%
    13:00 +12°C° 0.1 mm 3 mps 757 mmHg 59%
    14:00 +12°C° 0.1 mm 3 mps 757 mmHg 55%
    15:00 +12°C° 0.1 mm 3 mps 757 mmHg 52%
    16:00 +12°C° 0 mm 3 mps 757 mmHg 54%
    17:00 +12°C° 0 mm 2 mps 757 mmHg 56%
    18:00 +12°C° 0 mm 2 mps 757 mmHg 58%
    19:00 +10°C° 0 mm 1 mps 757 mmHg 63%
    20:00 +9°C° 0 mm 1 mps 757 mmHg 67%
    21:00 +6°C° 0 mm 0 mps 758 mmHg 72%
    22:00 +7°C° 0 mm 1 mps 758 mmHg 73%
    23:00 +7°C° 0 mm 1 mps 758 mmHg 74%

    Tomorrow, 24 April, Wednesday

    Time Temperature Precipitation Wind Pressure Humidity
    00:00 +6°C° 0 mm 1 mps 758 mmHg 76%
    01:00 +5°C° 0 mm 2 mps 757 mmHg 78%
    02:00 +5°C° 0 mm 2 mps 757 mmHg 81%
    03:00 +4°C° 0 mm 2 mps 757 mmHg 84%
    04:00 +4°C° 0 mm 3 mps 757 mmHg 81%
    05:00 +5°C° 0 mm 3 mps 757 mmHg 79%
    06:00 +5°C° 0 mm 3 mps 756 mmHg 77%
    07:00 +7°C° 0 mm 4 mps 756 mmHg 72%
    08:00 +10°C° 0 mm 4 mps 756 mmHg 67%
    09:00 +12°C° 0 mm 4 mps 756 mmHg 61%
    10:00 +14°C° 0 mm 4 mps 756 mmHg 58%
    11:00 +15°C° 0 mm 4 mps 756 mmHg 54%
    12:00 +17°C° 0 mm 5 mps 755 mmHg 50%
    13:00 +19°C° 0 mm 5 mps 755 mmHg 49%
    14:00 +19°C° 0 mm 5 mps 755 mmHg 47%
    15:00 +20°C° 0 mm 5 mps 755 mmHg 46%
    16:00 +19°C° 0 mm 4 mps 755 mmHg 50%
    17:00 +18°C° 0 mm 3 mps 755 mmHg 54%
    18:00 +17°C° 0 mm 3 mps 755 mmHg 58%
    19:00 +16°C° 0 mm 3 mps 755 mmHg 64%
    20:00 +13°C° 0 mm 3 mps 756 mmHg 69%
    21:00 +13°C° 0 mm 2 mps 756 mmHg 75%
    22:00 +12°C° 0 mm 2 mps 756 mmHg 78%
    23:00 +12°C° 0 mm 2 mps 756 mmHg 81%

    Day after tomorrow, 25 April, Thursday

    Time Temperature Precipitation Wind Pressure Humidity
    00:00 +10°C° 0 mm 3 mps 756 mmHg 84%
    01:00 +9°C° 0 mm 2 mps 756 mmHg 87%
    02:00 +9°C° 0 mm 2 mps 757 mmHg 90%
    03:00 +8°C° 0 mm 2 mps 757 mmHg 94%
    04:00 +8°C° 0 mm 2 mps 757 mmHg 92%
    05:00 +8°C° 0 mm 2 mps 757 mmHg 90%
    06:00 +8°C° 0 mm 2 mps 758 mmHg 88%
    07:00 +9°C° 0 mm 3 mps 758 mmHg 79%
    08:00 +11°C° 0 mm 3 mps 758 mmHg 70%
    09:00 +12°C° 0 mm 4 mps 758 mmHg 60%
    10:00 +13°C° 0 mm 4 mps 758 mmHg 56%
    11:00 +14°C° 0 mm 4 mps 758 mmHg 51%
    12:00 +15°C° 0 mm 5 mps 758 mmHg 46%
    13:00 +14°C° 0 mm 5 mps 758 mmHg 47%
    14:00 +14°C° 0 mm 5 mps 758 mmHg 48%
    15:00 +14°C° 0 mm 5 mps 758 mmHg 49%
    16:00 +13°C° 0 mm 4 mps 758 mmHg 50%
    17:00 +13°C° 0 mm 3 mps 758 mmHg 51%
    18:00 +12°C° 0 mm 3 mps 758 mmHg 52%
    19:00 +12°C° 0 mm 2 mps 758 mmHg 57%
    20:00 +9°C° 0 mm 2 mps 758 mmHg 63%
    21:00 +8°C° 0 mm 1 mps 758 mmHg 68%
    22:00 +8°C° 0 mm 1 mps 758 mmHg 70%
    23:00 +7°C° 0 mm 1 mps 758 mmHg 71%

    26 April, Friday

    Time Temperature Precipitation Wind Pressure Humidity
    00:00 +7°C° 0 mm 1 mps 758 mmHg 73%
    01:00 +7°C° 0 mm 1 mps 758 mmHg 73%
    02:00 +7°C° 0 mm 1 mps 758 mmHg 72%
    03:00 +8°C° 0 mm 1 mps 759 mmHg 71%
    04:00 +7°C° 0 mm 2 mps 759 mmHg 71%
    05:00 +6°C° 0 mm 2 mps 759 mmHg 70%
    06:00 +5°C° 0 mm 3 mps 759 mmHg 70%
    07:00 +7°C° 0 mm 3 mps 759 mmHg 62%
    08:00 +8°C° 0 mm 3 mps 759 mmHg 54%
    09:00 +9°C° 0 mm 3 mps 760 mmHg 46%
    10:00 +10°C° 0 mm 3 mps 759 mmHg 42%
    11:00 +11°C° 0 mm 3 mps 759 mmHg 39%
    12:00 +12°C° 0 mm 2 mps 759 mmHg 35%
    13:00 +13°C° 0 mm 2 mps 759 mmHg 34%
    14:00 +13°C° 0 mm 2 mps 759 mmHg 33%
    15:00 +14°C° 0 mm 2 mps 758 mmHg 32%
    16:00 +13°C° 0 mm 1 mps 758 mmHg 36%
    17:00 +13°C° 0 mm 1 mps 758 mmHg 40%
    18:00 +11°C° 0 mm 0 mps 758 mmHg 43%
    19:00 +11°C° 0 mm 1 mps 757 mmHg 46%
    20:00 +9°C° 0 mm 1 mps 757 mmHg 49%
    21:00 +7°C° 0 mm 2 mps 757 mmHg 52%
    22:00 +6°C° 0 mm 2 mps 757 mmHg 54%
    23:00 +6°C° 0 mm 2 mps 756 mmHg 56%

    27 April, Saturday

    Time Temperature Precipitation Wind Pressure Humidity
    00:00 +5°C° 0 mm 2 mps 756 mmHg 58%
    01:00 +5°C° 0 mm 2 mps 756 mmHg 59%
    02:00 +5°C° 0 mm 2 mps 755 mmHg 61%
    03:00 +5°C° 0 mm 2 mps 755 mmHg 63%
    04:00 +5°C° 0.1 mm 3 mps 754 mmHg 69%
    05:00 +7°C° 0.1 mm 3 mps 754 mmHg 75%
    06:00 +8°C° 0.1 mm 3 mps 753 mmHg 81%
    07:00 +10°C° 0 mm 3 mps 753 mmHg 76%
    08:00 +12°C° 0 mm 3 mps 752 mmHg 71%
    09:00 +14°C° 0 mm 4 mps 752 mmHg 66%
    10:00 +15°C° 0.1 mm 4 mps 751 mmHg 59%
    11:00 +17°C° 0.1 mm 5 mps 750 mmHg 53%
    12:00 +19°C° 0.1 mm 5 mps 750 mmHg 46%
    13:00 +19°C° 0 mm 5 mps 749 mmHg 46%
    14:00 +18°C° 0 mm 4 mps 749 mmHg 46%
    15:00 +18°C° 0 mm 4 mps 748 mmHg 46%
    16:00 +18°C° 0 mm 3 mps 748 mmHg 48%
    17:00 +17°C° 0 mm 3 mps 748 mmHg 51%
    18:00 +17°C° 0 mm 2 mps 747 mmHg 53%
    19:00 +15°C° 0.6 mm 2 mps 747 mmHg 62%
    20:00 +14°C° 0.6 mm 2 mps 747 mmHg 71%
    21:00 +12°C° 0.6 mm 2 mps 747 mmHg 79%
    22:00 +12°C° 0 mm 2 mps 746 mmHg 82%
    23:00 +10°C° 0 mm 2 mps 746 mmHg 84%

    28 April, Sunday

    Time Temperature Precipitation Wind Pressure Humidity
    00:00 +10°C° 0 mm 2 mps 746 mmHg 86%
    01:00 +9°C° 0 mm 2 mps 746 mmHg 87%
    02:00 +8°C° 0 mm 3 mps 747 mmHg 88%
    03:00 +7°C° 0 mm 3 mps 747 mmHg 89%
    04:00 +6°C° 0.1 mm 4 mps 747 mmHg 87%
    05:00 +5°C° 0.1 mm 5 mps 748 mmHg 84%
    06:00 +5°C° 0.1 mm 5 mps 749 mmHg 82%
    07:00 +3°C° 0.4 mm 5 mps 749 mmHg 78%
    08:00 +3°C° 0.4 mm 5 mps 750 mmHg 74%
    09:00 +4°C° 0.4 mm 4 mps 751 mmHg 69%
    10:00 +5°C° 0 mm 5 mps 751 mmHg 61%
    11:00 +6°C° 0 mm 5 mps 752 mmHg 52%
    12:00 +7°C° 0 mm 5 mps 753 mmHg 43%
    13:00 +7°C° 0 mm 6 mps 753 mmHg 40%
    14:00 +7°C° 0 mm 6 mps 754 mmHg 37%
    15:00 +5°C° 0 mm 6 mps 754 mmHg 34%
    16:00 +5°C° 0 mm 5 mps 754 mmHg 37%
    17:00 +5°C° 0 mm 5 mps 755 mmHg 39%
    18:00 +4°C° 0 mm 4 mps 755 mmHg 41%
    19:00 +3°C° 0 mm 4 mps 756 mmHg 45%
    20:00 +1°C° 0 mm 3 mps 757 mmHg 50%
    21:00 +1°C° 0 mm 2 mps 758 mmHg 55%
    22:00 -1°C° 0 mm 2 mps 758 mmHg 56%
    23:00 -1°C° 0 mm 2 mps 758 mmHg 57%
    Show more